| time (UTC) | temp F | wind direction | speed MPH | gust MPH | rain 1hr in | rain 24hr in | rain mn in | humidity % | barometer mb |
| 20260505050804 | 72 | 182 | 9.0 | 15.0 | 0.00 | 0.00 | 0.00 | 80 | 1007.3 |
| 20260505050704 | 72 | 181 | 9.0 | 15.0 | 0.00 | 0.00 | 0.00 | 80 | 1007.3 |
| 20260505050504 | 72 | 179 | 9.0 | 15.0 | 0.00 | 0.00 | 0.00 | 80 | 1007.3 |
| 20260505050404 | 72 | 179 | 9.0 | 15.0 | 0.00 | 0.00 | 0.00 | 80 | 1007.3 |
| 20260505050303 | 72 | 177 | 10.0 | 15.0 | 0.00 | 0.00 | 0.00 | 80 | 1007.4 |
| 20260505050204 | 72 | 177 | 9.0 | 15.0 | 0.00 | 0.00 | 0.00 | 80 | 1007.3 |
| 20260505050104 | 72 | 176 | 9.0 | 15.0 | 0.00 | 0.00 | 0.00 | 80 | 1007.2 |
| 20260505041704 | 73 | 173 | 8.0 | 15.0 | 0.00 | 0.00 | 0.00 | 78 | 1007.3 |
| 20260505041503 | 73 | 172 | 8.0 | 15.0 | 0.00 | 0.00 | 0.00 | 77 | 1007.2 |
| 20260505041404 | 73 | 173 | 8.0 | 15.0 | 0.00 | 0.00 | 0.00 | 77 | 1007.3 |
| 20260505041304 | 73 | 173 | 8.0 | 15.0 | 0.00 | 0.00 | 0.00 | 77 | 1007.2 |
| 20260505041204 | 73 | 174 | 8.0 | 15.0 | 0.00 | 0.00 | 0.00 | 77 | 1007.2 |
| 20260505041104 | 73 | 175 | 8.0 | 15.0 | 0.00 | 0.00 | 0.00 | 77 | 1007.2 |
| 20260505040904 | 73 | 176 | 8.0 | 13.0 | 0.00 | 0.00 | 0.00 | 77 | 1007.2 |
| 20260505040803 | 73 | 175 | 8.0 | 13.0 | 0.00 | 0.00 | 0.00 | 77 | 1007.3 |
| 20260505040704 | 73 | 174 | 8.0 | 12.0 | 0.00 | 0.00 | 0.00 | 77 | 1007.3 |
| 20260505040404 | 73 | 174 | 8.0 | 12.0 | 0.00 | 0.00 | 0.00 | 76 | 1007.4 |
| 20260505040303 | 73 | 173 | 8.0 | 13.0 | 0.00 | 0.00 | 0.00 | 76 | 1007.4 |
| 20260505040204 | 73 | 172 | 8.0 | 13.0 | 0.00 | 0.00 | 0.00 | 76 | 1007.5 |
| 20260505040104 | 73 | 172 | 8.0 | 13.0 | 0.00 | 0.00 | 0.00 | 76 | 1007.4 |
| 20260505035903 | 73 | 171 | 8.0 | 14.0 | 0.00 | 0.00 | 0.00 | 76 | 1007.3 |
| 20260505035703 | 73 | 172 | 7.0 | 14.0 | 0.00 | 0.00 | 0.00 | 76 | 1007.4 |
| 20260505035604 | 73 | 172 | 7.0 | 14.0 | 0.00 | 0.00 | 0.00 | 76 | 1007.4 |
| 20260505035503 | 73 | 172 | 7.0 | 14.0 | 0.00 | 0.00 | 0.00 | 76 | 1007.4 |
| 20260505035204 | 73 | 171 | 6.0 | 14.0 | 0.00 | 0.00 | 0.00 | 75 | 1007.4 |
| 20260505035104 | 73 | 170 | 6.0 | 14.0 | 0.00 | 0.00 | 0.00 | 75 | 1007.4 |
| 20260505035004 | 73 | 169 | 6.0 | 13.0 | 0.00 | 0.00 | 0.00 | 75 | 1007.4 |
| 20260505034904 | 73 | 168 | 6.0 | 13.0 | 0.00 | 0.00 | 0.00 | 75 | 1007.4 |
| 20260505034804 | 73 | 165 | 6.0 | 13.0 | 0.00 | 0.00 | 0.00 | 75 | 1007.4 |
| 20260505034704 | 73 | 164 | 6.0 | 13.0 | 0.00 | 0.00 | 0.00 | 75 | 1007.4 |
| 20260505034604 | 73 | 164 | 6.0 | 13.0 | 0.00 | 0.00 | 0.00 | 75 | 1007.5 |
| 20260505034503 | 73 | 163 | 6.0 | 10.0 | 0.00 | 0.00 | 0.00 | 75 | 1007.4 |
| 20260505034404 | 73 | 162 | 5.0 | 10.0 | 0.00 | 0.00 | 0.00 | 75 | 1007.5 |
| 20260505034103 | 73 | 156 | 4.0 | 10.0 | 0.00 | 0.00 | 0.00 | 74 | 1007.5 |
| 20260505034004 | 73 | 156 | 4.0 | 10.0 | 0.00 | 0.00 | 0.00 | 74 | 1007.4 |
| 20260505033903 | 73 | 156 | 4.0 | 10.0 | 0.00 | 0.00 | 0.00 | 74 | 1007.4 |
| 20260505033804 | 73 | 157 | 4.0 | 10.0 | 0.00 | 0.00 | 0.00 | 74 | 1007.3 |
| 20260505033603 | 73 | 157 | 4.0 | 8.0 | 0.00 | 0.00 | 0.00 | 74 | 1007.4 |
| 20260505033504 | 73 | 157 | 4.0 | 8.0 | 0.00 | 0.00 | 0.00 | 74 | 1007.4 |
| 20260505033403 | 73 | 156 | 4.0 | 8.0 | 0.00 | 0.00 | 0.00 | 73 | 1007.4 |
| 20260505033304 | 73 | 156 | 4.0 | 9.0 | 0.00 | 0.00 | 0.00 | 73 | 1007.4 |
| 20260505033203 | 73 | 156 | 4.0 | 9.0 | 0.00 | 0.00 | 0.00 | 73 | 1007.4 |
| 20260505033104 | 73 | 155 | 5.0 | 9.0 | 0.00 | 0.00 | 0.00 | 73 | 1007.4 |
| 20260505033003 | 73 | 156 | 5.0 | 9.0 | 0.00 | 0.00 | 0.00 | 73 | 1007.5 |
| 20260505032904 | 73 | 158 | 5.0 | 9.0 | 0.00 | 0.00 | 0.00 | 73 | 1007.5 |
| 20260505032703 | 74 | 160 | 5.0 | 9.0 | 0.00 | 0.00 | 0.00 | 72 | 1007.5 |
| 20260505032604 | 74 | 161 | 6.0 | 9.0 | 0.00 | 0.00 | 0.00 | 72 | 1007.6 |
| 20260505032504 | 74 | 163 | 6.0 | 9.0 | 0.00 | 0.00 | 0.00 | 72 | 1007.5 |
| 20260505032405 | 74 | 163 | 6.0 | 10.0 | 0.00 | 0.00 | 0.00 | 72 | 1007.6 |
| 20260505032304 | 74 | 165 | 6.0 | 10.0 | 0.00 | 0.00 | 0.00 | 72 | 1007.6 |
| 20260505032104 | 74 | 169 | 7.0 | 12.0 | 0.00 | 0.00 | 0.00 | 72 | 1007.5 |
| 20260505032003 | 74 | 171 | 7.0 | 12.0 | 0.00 | 0.00 | 0.00 | 72 | 1007.5 |
| 20260505031904 | 74 | 172 | 7.0 | 12.0 | 0.00 | 0.00 | 0.00 | 72 | 1007.5 |
| 20260505031804 | 74 | 172 | 7.0 | 12.0 | 0.00 | 0.00 | 0.00 | 71 | 1007.5 |
| 20260505031704 | 74 | 173 | 8.0 | 12.0 | 0.00 | 0.00 | 0.00 | 71 | 1007.5 |
| 20260505031603 | 74 | 174 | 8.0 | 12.0 | 0.00 | 0.00 | 0.00 | 71 | 1007.5 |
| 20260505031504 | 74 | 172 | 8.0 | 14.0 | 0.00 | 0.00 | 0.00 | 71 | 1007.5 |
| 20260505031403 | 74 | 171 | 8.0 | 14.0 | 0.00 | 0.00 | 0.00 | 71 | 1007.4 |
| 20260505031304 | 74 | 171 | 8.0 | 14.0 | 0.00 | 0.00 | 0.00 | 71 | 1007.4 |
| 20260505031203 | 74 | 172 | 8.0 | 14.0 | 0.00 | 0.00 | 0.00 | 71 | 1007.4 |
| 20260505031104 | 74 | 172 | 8.0 | 14.0 | 0.00 | 0.00 | 0.00 | 71 | 1007.5 |
| 20260505031003 | 74 | 171 | 8.0 | 14.0 | 0.00 | 0.00 | 0.00 | 71 | 1007.4 |
| 20260505030904 | 74 | 171 | 8.0 | 14.0 | 0.00 | 0.00 | 0.00 | 71 | 1007.4 |
| 20260505030803 | 74 | 171 | 8.0 | 14.0 | 0.00 | 0.00 | 0.00 | 71 | 1007.4 |
| 20260505030704 | 74 | 170 | 8.0 | 14.0 | 0.00 | 0.00 | 0.00 | 71 | 1007.4 |
| 20260505030603 | 74 | 170 | 7.0 | 14.0 | 0.00 | 0.00 | 0.00 | 71 | 1007.4 |
| 20260505030504 | 74 | 171 | 7.0 | 14.0 | 0.00 | 0.00 | 0.00 | 71 | 1007.4 |
| 20260505030404 | 74 | 173 | 7.0 | 11.0 | 0.00 | 0.00 | 0.00 | 71 | 1007.4 |
| 20260505030304 | 74 | 173 | 7.0 | 11.0 | 0.00 | 0.00 | 0.00 | 71 | 1007.4 |
| 20260505030203 | 74 | 173 | 7.0 | 11.0 | 0.00 | 0.00 | 0.00 | 71 | 1007.4 |
| 20260505030104 | 74 | 173 | 7.0 | 11.0 | 0.00 | 0.00 | 0.00 | 71 | 1007.5 |
| 20260505030004 | 74 | 172 | 6.0 | 11.0 | 0.00 | 0.00 | 0.00 | 70 | 1007.3 |
| 20260505025904 | 74 | 172 | 7.0 | 11.0 | 0.00 | 0.00 | 0.00 | 70 | 1007.3 |
| 20260505025803 | 74 | 173 | 7.0 | 13.0 | 0.00 | 0.00 | 0.00 | 70 | 1007.3 |
| 20260505025704 | 74 | 173 | 7.0 | 13.0 | 0.00 | 0.00 | 0.00 | 70 | 1007.3 |
| 20260505025604 | 74 | 173 | 7.0 | 13.0 | 0.00 | 0.00 | 0.00 | 70 | 1007.3 |
| 20260505025503 | 74 | 174 | 7.0 | 13.0 | 0.00 | 0.00 | 0.00 | 70 | 1007.3 |
| 20260505025404 | 74 | 173 | 7.0 | 13.0 | 0.00 | 0.00 | 0.00 | 70 | 1007.2 |
| 20260505025104 | 74 | 173 | 8.0 | 14.0 | 0.00 | 0.00 | 0.00 | 69 | 1007.1 |
| 20260505025004 | 74 | 174 | 8.0 | 14.0 | 0.00 | 0.00 | 0.00 | 69 | 1007.1 |
| 20260505024804 | 74 | 175 | 8.0 | 14.0 | 0.00 | 0.00 | 0.00 | 69 | 1007.1 |
| 20260505024703 | 74 | 174 | 8.0 | 14.0 | 0.00 | 0.00 | 0.00 | 69 | 1007.1 |
| 20260505024504 | 75 | 174 | 8.0 | 14.0 | 0.00 | 0.00 | 0.00 | 69 | 1007.2 |
| 20260505024304 | 75 | 175 | 7.0 | 14.0 | 0.00 | 0.00 | 0.00 | 69 | 1007.2 |
| 20260505024203 | 75 | 174 | 7.0 | 13.0 | 0.00 | 0.00 | 0.00 | 69 | 1007.3 |
| 20260505024104 | 75 | 174 | 7.0 | 13.0 | 0.00 | 0.00 | 0.00 | 69 | 1007.3 |
| 20260505024003 | 75 | 173 | 7.0 | 13.0 | 0.00 | 0.00 | 0.00 | 69 | 1007.3 |
| 20260505023904 | 75 | 175 | 8.0 | 13.0 | 0.00 | 0.00 | 0.00 | 68 | 1007.2 |
| 20260505023803 | 75 | 173 | 8.0 | 12.0 | 0.00 | 0.00 | 0.00 | 68 | 1007.2 |
| 20260505023704 | 75 | 174 | 8.0 | 12.0 | 0.00 | 0.00 | 0.00 | 68 | 1007.2 |
| 20260505023603 | 75 | 174 | 8.0 | 12.0 | 0.00 | 0.00 | 0.00 | 68 | 1007.2 |
| 20260505023303 | 75 | 173 | 8.0 | 12.0 | 0.00 | 0.00 | 0.00 | 68 | 1007.1 |
| 20260505023204 | 75 | 173 | 8.0 | 12.0 | 0.00 | 0.00 | 0.00 | 68 | 1007.1 |
| 20260505023105 | 75 | 173 | 8.0 | 12.0 | 0.00 | 0.00 | 0.00 | 67 | 1007.0 |
| 20260505023006 | 75 | 173 | 8.0 | 12.0 | 0.00 | 0.00 | 0.00 | 67 | 1007.0 |
| 20260505022905 | 75 | 171 | 8.0 | 12.0 | 0.00 | 0.00 | 0.00 | 67 | 1007.0 |
| 20260505022806 | 75 | 172 | 8.0 | 11.0 | 0.00 | 0.00 | 0.00 | 67 | 1007.0 |
| 20260505022705 | 75 | 173 | 8.0 | 11.0 | 0.00 | 0.00 | 0.00 | 67 | 1006.9 |
| 20260505022605 | 75 | 174 | 8.0 | 13.0 | 0.00 | 0.00 | 0.00 | 67 | 1006.9 |
| 20260505022505 | 75 | 175 | 8.0 | 13.0 | 0.00 | 0.00 | 0.00 | 67 | 1006.9 |
| 20260505022406 | 75 | 176 | 8.0 | 13.0 | 0.00 | 0.00 | 0.00 | 67 | 1006.9 |
| 20260505022206 | 75 | 176 | 8.0 | 13.0 | 0.00 | 0.00 | 0.00 | 67 | 1007.0 |
| 20260505022105 | 75 | 178 | 8.0 | 13.0 | 0.00 | 0.00 | 0.00 | 67 | 1007.0 |
| 20260505022006 | 75 | 181 | 8.0 | 13.0 | 0.00 | 0.00 | 0.00 | 67 | 1007.0 |
| 20260505021905 | 75 | 184 | 8.0 | 15.0 | 0.00 | 0.00 | 0.00 | 66 | 1007.0 |
| 20260505021807 | 75 | 186 | 8.0 | 15.0 | 0.00 | 0.00 | 0.00 | 66 | 1007.0 |
| 20260505021706 | 76 | 184 | 8.0 | 15.0 | 0.00 | 0.00 | 0.00 | 66 | 1007.0 |
| 20260505021506 | 76 | 185 | 7.0 | 15.0 | 0.00 | 0.00 | 0.00 | 66 | 1007.1 |
| 20260505021406 | 76 | 187 | 7.0 | 15.0 | 0.00 | 0.00 | 0.00 | 66 | 1007.1 |
| 20260505021305 | 76 | 187 | 7.0 | 15.0 | 0.00 | 0.00 | 0.00 | 66 | 1007.1 |
| 20260505021206 | 76 | 188 | 8.0 | 15.0 | 0.00 | 0.00 | 0.00 | 66 | 1007.1 |
| 20260505021105 | 76 | 186 | 8.0 | 15.0 | 0.00 | 0.00 | 0.00 | 66 | 1007.1 |
| 20260505021006 | 76 | 187 | 8.0 | 15.0 | 0.00 | 0.00 | 0.00 | 66 | 1007.0 |
| 20260505020905 | 76 | 186 | 8.0 | 15.0 | 0.00 | 0.00 | 0.00 | 66 | 1007.0 |
| 20260505020806 | 76 | 185 | 7.0 | 15.0 | 0.00 | 0.00 | 0.00 | 66 | 1007.0 |
| 20260505020705 | 76 | 188 | 8.0 | 13.0 | 0.00 | 0.00 | 0.00 | 66 | 1007.0 |
| 20260505020606 | 76 | 185 | 8.0 | 13.0 | 0.00 | 0.00 | 0.00 | 66 | 1006.9 |
| 20260505020505 | 76 | 186 | 8.0 | 13.0 | 0.00 | 0.00 | 0.00 | 66 | 1007.0 |
| 20260505020406 | 76 | 183 | 7.0 | 13.0 | 0.00 | 0.00 | 0.00 | 66 | 1006.9 |
| 20260505020306 | 76 | 182 | 7.0 | 13.0 | 0.00 | 0.00 | 0.00 | 66 | 1006.9 |
| 20260505020205 | 76 | 184 | 7.0 | 13.0 | 0.00 | 0.00 | 0.00 | 66 | 1006.9 |
| 20260505020106 | 76 | 185 | 7.0 | 13.0 | 0.00 | 0.00 | 0.00 | 66 | 1006.9 |
| 20260505020006 | 76 | 184 | 7.0 | 13.0 | 0.00 | 0.00 | 0.00 | 66 | 1006.8 |
| 20260505015906 | 76 | 183 | 7.0 | 13.0 | 0.00 | 0.00 | 0.00 | 66 | 1006.8 |
| 20260505015805 | 76 | 183 | 7.0 | 13.0 | 0.00 | 0.00 | 0.00 | 66 | 1006.8 |
| 20260505015706 | 76 | 182 | 7.0 | 13.0 | 0.00 | 0.00 | 0.00 | 66 | 1006.8 |
| 20260505015605 | 76 | 183 | 7.0 | 13.0 | 0.00 | 0.00 | 0.00 | 66 | 1006.8 |
| 20260505015506 | 76 | 182 | 7.0 | 13.0 | 0.00 | 0.00 | 0.00 | 66 | 1006.8 |
| 20260505015405 | 76 | 183 | 7.0 | 13.0 | 0.00 | 0.00 | 0.00 | 66 | 1006.8 |
| 20260505015306 | 76 | 184 | 7.0 | 13.0 | 0.00 | 0.00 | 0.00 | 66 | 1006.8 |
| 20260505015206 | 76 | 183 | 7.0 | 13.0 | 0.00 | 0.00 | 0.00 | 66 | 1006.8 |
| 20260505015105 | 76 | 181 | 7.0 | 13.0 | 0.00 | 0.00 | 0.00 | 66 | 1006.8 |
| 20260505014905 | 76 | 179 | 7.0 | 13.0 | 0.00 | 0.00 | 0.00 | 66 | 1006.8 |
| 20260505014806 | 76 | 178 | 7.0 | 11.0 | 0.00 | 0.00 | 0.00 | 66 | 1006.9 |
| 20260505014406 | 76 | 178 | 8.0 | 15.0 | 0.00 | 0.00 | 0.00 | 65 | 1006.8 |
| 20260505014307 | 76 | 178 | 8.0 | 15.0 | 0.00 | 0.00 | 0.00 | 65 | 1006.8 |
| 20260505014105 | 76 | 179 | 8.0 | 15.0 | 0.00 | 0.00 | 0.00 | 65 | 1006.8 |
| 20260505014006 | 76 | 179 | 8.0 | 15.0 | 0.00 | 0.00 | 0.00 | 65 | 1006.8 |
| 20260505013905 | 76 | 179 | 8.0 | 15.0 | 0.00 | 0.00 | 0.00 | 65 | 1006.8 |
| 20260505013805 | 76 | 179 | 8.0 | 15.0 | 0.00 | 0.00 | 0.00 | 65 | 1006.8 |
| 20260505013706 | 76 | 179 | 8.0 | 15.0 | 0.00 | 0.00 | 0.00 | 65 | 1006.9 |
| 20260505013605 | 76 | 178 | 7.0 | 15.0 | 0.00 | 0.00 | 0.00 | 65 | 1006.9 |
| 20260505013406 | 76 | 179 | 7.0 | 14.0 | 0.00 | 0.00 | 0.00 | 65 | 1006.9 |
| 20260505013305 | 76 | 178 | 7.0 | 14.0 | 0.00 | 0.00 | 0.00 | 65 | 1007.0 |
| 20260505013106 | 76 | 177 | 7.0 | 12.0 | 0.00 | 0.00 | 0.00 | 65 | 1007.0 |
| 20260505013006 | 76 | 177 | 7.0 | 12.0 | 0.00 | 0.00 | 0.00 | 66 | 1007.0 |
| 20260505012905 | 76 | 177 | 7.0 | 12.0 | 0.00 | 0.00 | 0.00 | 65 | 1007.0 |
| 20260505012806 | 76 | 177 | 7.0 | 12.0 | 0.00 | 0.00 | 0.00 | 65 | 1006.9 |
| 20260505012705 | 76 | 177 | 6.0 | 12.0 | 0.00 | 0.00 | 0.00 | 65 | 1006.9 |
| 20260505012606 | 76 | 177 | 6.0 | 11.0 | 0.00 | 0.00 | 0.00 | 65 | 1006.9 |
| 20260505012505 | 76 | 178 | 6.0 | 11.0 | 0.00 | 0.00 | 0.00 | 65 | 1006.9 |
| 20260505012406 | 76 | 178 | 6.0 | 11.0 | 0.00 | 0.00 | 0.00 | 65 | 1006.9 |
| 20260505012305 | 76 | 179 | 6.0 | 11.0 | 0.00 | 0.00 | 0.00 | 65 | 1006.9 |
| 20260505012207 | 76 | 182 | 6.0 | 11.0 | 0.00 | 0.00 | 0.00 | 65 | 1006.9 |
| 20260505012106 | 76 | 182 | 6.0 | 12.0 | 0.00 | 0.00 | 0.00 | 64 | 1006.8 |
| 20260505012005 | 77 | 183 | 6.0 | 12.0 | 0.00 | 0.00 | 0.00 | 64 | 1006.9 |
| 20260505011906 | 77 | 184 | 6.0 | 12.0 | 0.00 | 0.00 | 0.00 | 64 | 1006.9 |
| 20260505011705 | 77 | 187 | 7.0 | 12.0 | 0.00 | 0.00 | 0.00 | 64 | 1006.8 |
| 20260505011605 | 77 | 188 | 7.0 | 12.0 | 0.00 | 0.00 | 0.00 | 64 | 1006.8 |
| 20260505011506 | 77 | 188 | 8.0 | 14.0 | 0.00 | 0.00 | 0.00 | 64 | 1006.8 |
| 20260505011405 | 77 | 187 | 8.0 | 14.0 | 0.00 | 0.00 | 0.00 | 63 | 1006.8 |
| 20260505011305 | 77 | 187 | 8.0 | 14.0 | 0.00 | 0.00 | 0.00 | 63 | 1006.8 |
| 20260505011206 | 77 | 188 | 8.0 | 14.0 | 0.00 | 0.00 | 0.00 | 63 | 1006.9 |
| 20260505011106 | 77 | 189 | 8.0 | 14.0 | 0.00 | 0.00 | 0.00 | 63 | 1006.9 |
| 20260505011005 | 77 | 189 | 8.0 | 14.0 | 0.00 | 0.00 | 0.00 | 63 | 1006.9 |
| 20260505010906 | 77 | 189 | 8.0 | 14.0 | 0.00 | 0.00 | 0.00 | 63 | 1006.9 |
| 20260505010805 | 77 | 190 | 8.0 | 14.0 | 0.00 | 0.00 | 0.00 | 63 | 1006.9 |
| 20260505010705 | 77 | 189 | 8.0 | 14.0 | 0.00 | 0.00 | 0.00 | 63 | 1006.9 |
| 20260505010605 | 77 | 189 | 8.0 | 14.0 | 0.00 | 0.00 | 0.00 | 63 | 1006.9 |
| 20260505010406 | 78 | 190 | 8.0 | 13.0 | 0.00 | 0.00 | 0.00 | 63 | 1006.9 |
| 20260505010305 | 78 | 190 | 8.0 | 13.0 | 0.00 | 0.00 | 0.00 | 62 | 1006.9 |
| 20260505010105 | 78 | 188 | 8.0 | 15.0 | 0.00 | 0.00 | 0.00 | 62 | 1007.0 |
| 20260505005905 | 78 | 187 | 9.0 | 16.0 | 0.00 | 0.00 | 0.00 | 62 | 1007.0 |
| 20260505005805 | 78 | 186 | 9.0 | 16.0 | 0.00 | 0.00 | 0.00 | 62 | 1007.0 |
| 20260505005706 | 78 | 186 | 8.0 | 16.0 | 0.00 | 0.00 | 0.00 | 62 | 1007.0 |
| 20260505005606 | 78 | 187 | 9.0 | 16.0 | 0.00 | 0.00 | 0.00 | 62 | 1007.0 |
| 20260505005506 | 78 | 188 | 9.0 | 16.0 | 0.00 | 0.00 | 0.00 | 62 | 1007.0 |
| 20260505005406 | 78 | 188 | 9.0 | 16.0 | 0.00 | 0.00 | 0.00 | 62 | 1007.0 |
| 20260505005305 | 78 | 189 | 9.0 | 16.0 | 0.00 | 0.00 | 0.00 | 61 | 1007.0 |
| 20260505005206 | 78 | 190 | 9.0 | 16.0 | 0.00 | 0.00 | 0.00 | 61 | 1007.0 |
| 20260505005105 | 78 | 191 | 9.0 | 16.0 | 0.00 | 0.00 | 0.00 | 61 | 1007.0 |
| 20260505005006 | 78 | 191 | 9.0 | 16.0 | 0.00 | 0.00 | 0.00 | 61 | 1007.1 |
| 20260505004905 | 78 | 192 | 9.0 | 16.0 | 0.00 | 0.00 | 0.00 | 61 | 1007.0 |
| 20260505004805 | 78 | 192 | 9.0 | 18.0 | 0.00 | 0.00 | 0.00 | 61 | 1007.1 |
| 20260505004605 | 78 | 189 | 9.0 | 18.0 | 0.00 | 0.00 | 0.00 | 61 | 1007.1 |
| 20260505004206 | 79 | 183 | 10.0 | 18.0 | 0.00 | 0.00 | 0.00 | 61 | 1007.1 |
| 20260505004105 | 79 | 183 | 10.0 | 18.0 | 0.00 | 0.00 | 0.00 | 60 | 1007.0 |
| 20260505004006 | 79 | 183 | 10.0 | 18.0 | 0.00 | 0.00 | 0.00 | 60 | 1007.0 |
| 20260505003806 | 79 | 182 | 9.0 | 17.0 | 0.00 | 0.00 | 0.00 | 61 | 1006.9 |
| 20260505003705 | 79 | 185 | 10.0 | 16.0 | 0.00 | 0.00 | 0.00 | 60 | 1006.9 |
| 20260505003605 | 79 | 185 | 10.0 | 16.0 | 0.00 | 0.00 | 0.00 | 60 | 1006.9 |
| 20260505003405 | 79 | 187 | 10.0 | 16.0 | 0.00 | 0.00 | 0.00 | 60 | 1006.9 |
| 20260505003306 | 79 | 186 | 10.0 | 16.0 | 0.00 | 0.00 | 0.00 | 60 | 1006.9 |
| 20260505003105 | 79 | 188 | 10.0 | 16.0 | 0.00 | 0.00 | 0.00 | 60 | 1006.9 |
| 20260505003006 | 79 | 188 | 10.0 | 16.0 | 0.00 | 0.00 | 0.00 | 60 | 1006.9 |
| 20260505002905 | 79 | 188 | 10.0 | 16.0 | 0.00 | 0.00 | 0.00 | 60 | 1007.0 |
| 20260505002806 | 79 | 188 | 10.0 | 16.0 | 0.00 | 0.00 | 0.00 | 60 | 1007.0 |
| 20260505002705 | 79 | 186 | 10.0 | 16.0 | 0.00 | 0.00 | 0.00 | 60 | 1007.0 |
| 20260505002606 | 79 | 187 | 10.0 | 16.0 | 0.00 | 0.00 | 0.00 | 59 | 1007.0 |
| 20260505002505 | 79 | 189 | 10.0 | 16.0 | 0.00 | 0.00 | 0.00 | 59 | 1007.0 |
| 20260505002406 | 79 | 188 | 9.0 | 16.0 | 0.00 | 0.00 | 0.00 | 59 | 1007.1 |
| 20260505002206 | 79 | 190 | 9.0 | 16.0 | 0.00 | 0.00 | 0.00 | 59 | 1007.0 |
| 20260505002105 | 80 | 190 | 9.0 | 16.0 | 0.00 | 0.00 | 0.00 | 59 | 1007.0 |
| 20260505002006 | 80 | 191 | 8.0 | 16.0 | 0.00 | 0.00 | 0.00 | 59 | 1007.0 |
| 20260505001905 | 80 | 192 | 8.0 | 16.0 | 0.00 | 0.00 | 0.00 | 59 | 1006.9 |
| 20260505001805 | 80 | 192 | 8.0 | 16.0 | 0.00 | 0.00 | 0.00 | 59 | 1006.9 |
| 20260505001705 | 80 | 194 | 9.0 | 16.0 | 0.00 | 0.00 | 0.00 | 59 | 1007.0 |
| 20260505001606 | 80 | 195 | 9.0 | 16.0 | 0.00 | 0.00 | 0.00 | 59 | 1006.9 |
| 20260505001505 | 80 | 193 | 9.0 | 16.0 | 0.00 | 0.00 | 0.00 | 59 | 1006.9 |
| 20260505001406 | 80 | 192 | 9.0 | 16.0 | 0.00 | 0.00 | 0.00 | 59 | 1006.9 |
| 20260505001305 | 80 | 192 | 9.0 | 16.0 | 0.00 | 0.00 | 0.00 | 59 | 1006.9 |
| 20260505001206 | 80 | 192 | 9.0 | 16.0 | 0.00 | 0.00 | 0.00 | 59 | 1006.9 |
| 20260505001105 | 80 | 192 | 9.0 | 16.0 | 0.00 | 0.00 | 0.00 | 58 | 1006.8 |
| 20260505001006 | 80 | 191 | 9.0 | 16.0 | 0.00 | 0.00 | 0.00 | 58 | 1006.8 |
| 20260505000905 | 80 | 191 | 10.0 | 16.0 | 0.00 | 0.00 | 0.00 | 58 | 1006.8 |
| 20260505000805 | 80 | 190 | 10.0 | 16.0 | 0.00 | 0.00 | 0.00 | 58 | 1006.8 |
| 20260505000705 | 81 | 190 | 10.0 | 19.0 | 0.00 | 0.00 | 0.00 | 58 | 1006.8 |
| 20260505000605 | 81 | 189 | 10.0 | 19.0 | 0.00 | 0.00 | 0.00 | 58 | 1006.8 |
| 20260505000406 | 81 | 190 | 10.0 | 19.0 | 0.00 | 0.00 | 0.00 | 58 | 1006.8 |
| 20260505000305 | 81 | 189 | 10.0 | 19.0 | 0.00 | 0.00 | 0.00 | 58 | 1006.8 |
| 20260505000205 | 81 | 188 | 10.0 | 19.0 | 0.00 | 0.00 | 0.00 | 57 | 1006.8 |
| 20260505000105 | 81 | 188 | 10.0 | 19.0 | 0.00 | 0.00 | 0.00 | 57 | 1006.8 |
| 20260504235806 | 81 | 190 | 10.0 | 19.0 | 0.00 | 0.00 | 0.00 | 57 | 1006.9 |
| 20260504235705 | 81 | 188 | 10.0 | 17.0 | 0.00 | 0.00 | 0.00 | 57 | 1006.9 |
| 20260504235606 | 82 | 185 | 10.0 | 17.0 | 0.00 | 0.00 | 0.00 | 57 | 1007.0 |
| 20260504235505 | 82 | 183 | 10.0 | 19.0 | 0.00 | 0.00 | 0.00 | 57 | 1007.0 |
| 20260504235405 | 82 | 182 | 11.0 | 19.0 | 0.00 | 0.00 | 0.00 | 57 | 1006.9 |
| 20260504235305 | 82 | 181 | 12.0 | 20.0 | 0.00 | 0.00 | 0.00 | 57 | 1007.0 |
| 20260504235205 | 82 | 178 | 12.0 | 20.0 | 0.00 | 0.00 | 0.00 | 56 | 1007.0 |
| 20260504235005 | 82 | 178 | 12.0 | 20.0 | 0.00 | 0.00 | 0.00 | 56 | 1007.0 |
| 20260504234905 | 82 | 176 | 12.0 | 20.0 | 0.00 | 0.00 | 0.00 | 56 | 1007.0 |
| 20260504234805 | 82 | 172 | 12.0 | 20.0 | 0.00 | 0.00 | 0.00 | 56 | 1007.0 |
| 20260504234306 | 82 | 167 | 11.0 | 20.0 | 0.00 | 0.00 | 0.00 | 56 | 1007.0 |
| 20260504234205 | 82 | 165 | 11.0 | 22.0 | 0.00 | 0.00 | 0.00 | 56 | 1007.0 |
| 20260504233906 | 82 | 165 | 12.0 | 22.0 | 0.00 | 0.00 | 0.00 | 56 | 1006.9 |
| 20260504233805 | 82 | 168 | 12.0 | 22.0 | 0.00 | 0.00 | 0.00 | 56 | 1007.0 |
| 20260504233706 | 82 | 168 | 12.0 | 22.0 | 0.00 | 0.00 | 0.00 | 56 | 1006.9 |
| 20260504233605 | 82 | 169 | 12.0 | 22.0 | 0.00 | 0.00 | 0.00 | 56 | 1007.0 |
| 20260504233506 | 82 | 169 | 12.0 | 22.0 | 0.00 | 0.00 | 0.00 | 56 | 1007.0 |
| 20260504233406 | 82 | 169 | 12.0 | 22.0 | 0.00 | 0.00 | 0.00 | 56 | 1007.1 |
| 20260504233305 | 82 | 170 | 11.0 | 22.0 | 0.00 | 0.00 | 0.00 | 56 | 1007.0 |
| 20260504233206 | 82 | 171 | 12.0 | 19.0 | 0.00 | 0.00 | 0.00 | 56 | 1007.0 |
| 20260504233105 | 82 | 170 | 12.0 | 19.0 | 0.00 | 0.00 | 0.00 | 56 | 1007.0 |
| 20260504233006 | 82 | 170 | 12.0 | 19.0 | 0.00 | 0.00 | 0.00 | 56 | 1007.0 |
| 20260504232905 | 82 | 170 | 12.0 | 20.0 | 0.00 | 0.00 | 0.00 | 55 | 1007.1 |
| 20260504232705 | 82 | 172 | 12.0 | 20.0 | 0.00 | 0.00 | 0.00 | 55 | 1007.1 |
| 20260504232606 | 82 | 172 | 12.0 | 20.0 | 0.00 | 0.00 | 0.00 | 55 | 1007.2 |
| 20260504232505 | 82 | 173 | 12.0 | 20.0 | 0.00 | 0.00 | 0.00 | 55 | 1007.2 |
| 20260504232406 | 83 | 175 | 12.0 | 20.0 | 0.00 | 0.00 | 0.00 | 54 | 1007.2 |
| 20260504232305 | 83 | 175 | 11.0 | 20.0 | 0.00 | 0.00 | 0.00 | 54 | 1007.2 |
| 20260504232206 | 83 | 178 | 11.0 | 20.0 | 0.00 | 0.00 | 0.00 | 54 | 1007.2 |
| 20260504232105 | 83 | 177 | 11.0 | 20.0 | 0.00 | 0.00 | 0.00 | 54 | 1007.2 |
| 20260504232007 | 83 | 176 | 11.0 | 23.0 | 0.00 | 0.00 | 0.00 | 54 | 1007.2 |
| 20260504231905 | 83 | 177 | 11.0 | 23.0 | 0.00 | 0.00 | 0.00 | 54 | 1007.2 |
| 20260504231705 | 83 | 176 | 11.0 | 23.0 | 0.00 | 0.00 | 0.00 | 54 | 1007.2 |
| 20260504231505 | 83 | 176 | 12.0 | 23.0 | 0.00 | 0.00 | 0.00 | 54 | 1007.2 |
| 20260504231305 | 83 | 175 | 12.0 | 23.0 | 0.00 | 0.00 | 0.00 | 55 | 1007.2 |
| 20260504231105 | 83 | 173 | 12.0 | 23.0 | 0.00 | 0.00 | 0.00 | 54 | 1007.2 |
| 20260504231006 | 83 | 175 | 12.0 | 23.0 | 0.00 | 0.00 | 0.00 | 54 | 1007.2 |
| 20260504230905 | 83 | 174 | 12.0 | 23.0 | 0.00 | 0.00 | 0.00 | 54 | 1007.2 |
| 20260504230705 | 83 | 170 | 11.0 | 23.0 | 0.00 | 0.00 | 0.00 | 54 | 1007.2 |
| 20260504230605 | 83 | 169 | 11.0 | 23.0 | 0.00 | 0.00 | 0.00 | 54 | 1007.2 |
| 20260504230505 | 83 | 168 | 11.0 | 23.0 | 0.00 | 0.00 | 0.00 | 53 | 1007.2 |
| 20260504230405 | 84 | 168 | 11.0 | 23.0 | 0.00 | 0.00 | 0.00 | 54 | 1007.2 |
| 20260504230306 | 83 | 167 | 12.0 | 21.0 | 0.00 | 0.00 | 0.00 | 54 | 1007.2 |
| 20260504230205 | 83 | 168 | 12.0 | 21.0 | 0.00 | 0.00 | 0.00 | 54 | 1007.2 |
| 20260504230106 | 83 | 170 | 12.0 | 21.0 | 0.00 | 0.00 | 0.00 | 54 | 1007.2 |
| 20260504230005 | 83 | 170 | 12.0 | 21.0 | 0.00 | 0.00 | 0.00 | 54 | 1007.1 |
| 20260504225905 | 83 | 172 | 12.0 | 21.0 | 0.00 | 0.00 | 0.00 | 54 | 1007.0 |
| 20260504225806 | 83 | 174 | 12.0 | 21.0 | 0.00 | 0.00 | 0.00 | 54 | 1007.1 |
| 20260504225705 | 83 | 176 | 12.0 | 21.0 | 0.00 | 0.00 | 0.00 | 54 | 1007.1 |
| 20260504225606 | 83 | 176 | 12.0 | 21.0 | 0.00 | 0.00 | 0.00 | 54 | 1007.2 |
| 20260504225505 | 83 | 176 | 11.0 | 21.0 | 0.00 | 0.00 | 0.00 | 54 | 1007.2 |
| 20260504225406 | 83 | 178 | 11.0 | 21.0 | 0.00 | 0.00 | 0.00 | 54 | 1007.2 |
| 20260504225207 | 84 | 182 | 10.0 | 20.0 | 0.00 | 0.00 | 0.00 | 54 | 1007.2 |
| 20260504225105 | 84 | 182 | 10.0 | 20.0 | 0.00 | 0.00 | 0.00 | 54 | 1007.1 |
| 20260504224705 | 84 | 186 | 10.0 | 20.0 | 0.00 | 0.00 | 0.00 | 53 | 1007.3 |
| 20260504224605 | 84 | 187 | 10.0 | 20.0 | 0.00 | 0.00 | 0.00 | 53 | 1007.2 |
| 20260504224505 | 84 | 187 | 10.0 | 20.0 | 0.00 | 0.00 | 0.00 | 53 | 1007.3 |
| 20260504224405 | 84 | 186 | 10.0 | 18.0 | 0.00 | 0.00 | 0.00 | 54 | 1007.2 |
| 20260504224305 | 84 | 184 | 10.0 | 18.0 | 0.00 | 0.00 | 0.00 | 55 | 1007.2 |
| 20260504224205 | 84 | 182 | 10.0 | 18.0 | 0.00 | 0.00 | 0.00 | 55 | 1007.2 |
| 20260504224105 | 84 | 181 | 11.0 | 18.0 | 0.00 | 0.00 | 0.00 | 55 | 1007.2 |
| 20260504224005 | 84 | 178 | 11.0 | 18.0 | 0.00 | 0.00 | 0.00 | 54 | 1007.2 |
| 20260504223906 | 83 | 175 | 11.0 | 18.0 | 0.00 | 0.00 | 0.00 | 54 | 1007.2 |
| 20260504223805 | 84 | 171 | 11.0 | 18.0 | 0.00 | 0.00 | 0.00 | 55 | 1007.3 |
| 20260504223705 | 83 | 170 | 11.0 | 18.0 | 0.00 | 0.00 | 0.00 | 55 | 1007.3 |
| 20260504223605 | 83 | 169 | 10.0 | 18.0 | 0.00 | 0.00 | 0.00 | 54 | 1007.4 |
| 20260504223405 | 83 | 162 | 10.0 | 18.0 | 0.00 | 0.00 | 0.00 | 55 | 1007.5 |
| 20260504223206 | 83 | 161 | 10.0 | 18.0 | 0.00 | 0.00 | 0.00 | 55 | 1007.5 |
| 20260504223105 | 83 | 160 | 11.0 | 18.0 | 0.00 | 0.00 | 0.00 | 55 | 1007.5 |
| 20260504223005 | 83 | 162 | 10.0 | 19.0 | 0.00 | 0.00 | 0.00 | 54 | 1007.4 |
| 20260504222905 | 83 | 163 | 11.0 | 19.0 | 0.00 | 0.00 | 0.00 | 54 | 1007.4 |
| 20260504222806 | 83 | 166 | 11.0 | 20.0 | 0.00 | 0.00 | 0.00 | 54 | 1007.4 |
| 20260504222705 | 83 | 168 | 11.0 | 20.0 | 0.00 | 0.00 | 0.00 | 54 | 1007.5 |
| 20260504222605 | 83 | 170 | 11.0 | 20.0 | 0.00 | 0.00 | 0.00 | 54 | 1007.5 |
| 20260504222505 | 83 | 171 | 11.0 | 20.0 | 0.00 | 0.00 | 0.00 | 54 | 1007.5 |
| 20260504222405 | 84 | 174 | 11.0 | 20.0 | 0.00 | 0.00 | 0.00 | 54 | 1007.6 |
| 20260504222306 | 84 | 175 | 11.0 | 20.0 | 0.00 | 0.00 | 0.00 | 54 | 1007.6 |
| 20260504222205 | 84 | 176 | 10.0 | 20.0 | 0.00 | 0.00 | 0.00 | 54 | 1007.6 |
| 20260504222105 | 84 | 177 | 10.0 | 20.0 | 0.00 | 0.00 | 0.00 | 54 | 1007.6 |
| 20260504222005 | 84 | 176 | 11.0 | 20.0 | 0.00 | 0.00 | 0.00 | 54 | 1007.6 |
| 20260504221905 | 84 | 175 | 11.0 | 20.0 | 0.00 | 0.00 | 0.00 | 54 | 1007.8 |
| 20260504221805 | 84 | 177 | 11.0 | 19.0 | 0.00 | 0.00 | 0.00 | 53 | 1007.7 |
| 20260504221605 | 84 | 177 | 10.0 | 19.0 | 0.00 | 0.00 | 0.00 | 54 | 1007.8 |
| 20260504221505 | 84 | 182 | 10.0 | 19.0 | 0.00 | 0.00 | 0.00 | 55 | 1007.8 |
| 20260504221405 | 84 | 182 | 11.0 | 19.0 | 0.00 | 0.00 | 0.00 | 54 | 1007.8 |
| 20260504221305 | 84 | 183 | 11.0 | 19.0 | 0.00 | 0.00 | 0.00 | 55 | 1007.8 |
| 20260504221205 | 83 | 184 | 11.0 | 19.0 | 0.00 | 0.00 | 0.00 | 54 | 1007.8 |
| 20260504221105 | 83 | 185 | 11.0 | 19.0 | 0.00 | 0.00 | 0.00 | 54 | 1007.8 |
| 20260504221005 | 83 | 185 | 11.0 | 19.0 | 0.00 | 0.00 | 0.00 | 54 | 1007.8 |
| 20260504220905 | 83 | 188 | 11.0 | 19.0 | 0.00 | 0.00 | 0.00 | 54 | 1007.8 |
| 20260504220805 | 83 | 187 | 12.0 | 19.0 | 0.00 | 0.00 | 0.00 | 54 | 1007.8 |
| 20260504220705 | 83 | 186 | 12.0 | 22.0 | 0.00 | 0.00 | 0.00 | 54 | 1007.7 |
| 20260504220506 | 83 | 184 | 12.0 | 23.0 | 0.00 | 0.00 | 0.00 | 54 | 1007.8 |
| 20260504220405 | 83 | 186 | 12.0 | 23.0 | 0.00 | 0.00 | 0.00 | 54 | 1007.8 |
| 20260504220306 | 83 | 186 | 12.0 | 23.0 | 0.00 | 0.00 | 0.00 | 54 | 1007.8 |
| 20260504220206 | 83 | 185 | 12.0 | 23.0 | 0.00 | 0.00 | 0.00 | 54 | 1007.8 |
| 20260504220107 | 83 | 186 | 12.0 | 23.0 | 0.00 | 0.00 | 0.00 | 53 | 1007.8 |
| 20260504215905 | 84 | 192 | 12.0 | 23.0 | 0.00 | 0.00 | 0.00 | 52 | 1007.8 |
| 20260504215805 | 84 | 194 | 12.0 | 23.0 | 0.00 | 0.00 | 0.00 | 53 | 1007.9 |
| 20260504215705 | 84 | 197 | 11.0 | 23.0 | 0.00 | 0.00 | 0.00 | 53 | 1007.9 |
| 20260504215505 | 84 | 199 | 11.0 | 18.0 | 0.00 | 0.00 | 0.00 | 53 | 1007.9 |
| 20260504215405 | 84 | 197 | 11.0 | 18.0 | 0.00 | 0.00 | 0.00 | 52 | 1007.9 |
| 20260504215305 | 84 | 197 | 11.0 | 18.0 | 0.00 | 0.00 | 0.00 | 52 | 1007.9 |
| 20260504215206 | 84 | 199 | 12.0 | 18.0 | 0.00 | 0.00 | 0.00 | 53 | 1007.9 |
| 20260504215105 | 84 | 196 | 12.0 | 18.0 | 0.00 | 0.00 | 0.00 | 54 | 1007.9 |
| 20260504215006 | 84 | 194 | 11.0 | 18.0 | 0.00 | 0.00 | 0.00 | 53 | 1007.9 |
| 20260504214905 | 84 | 192 | 11.0 | 18.0 | 0.00 | 0.00 | 0.00 | 54 | 1007.9 |
| 20260504214806 | 84 | 191 | 11.0 | 18.0 | 0.00 | 0.00 | 0.00 | 54 | 1008.0 |
| 20260504214705 | 83 | 187 | 11.0 | 18.0 | 0.00 | 0.00 | 0.00 | 54 | 1008.0 |
| 20260504214606 | 83 | 187 | 11.0 | 18.0 | 0.00 | 0.00 | 0.00 | 54 | 1008.0 |
| 20260504214406 | 84 | 184 | 11.0 | 18.0 | 0.00 | 0.00 | 0.00 | 53 | 1007.9 |
| 20260504214305 | 84 | 182 | 10.0 | 18.0 | 0.00 | 0.00 | 0.00 | 53 | 1008.0 |
| 20260504214206 | 84 | 178 | 10.0 | 18.0 | 0.00 | 0.00 | 0.00 | 53 | 1008.0 |
| 20260504214105 | 84 | 181 | 10.0 | 18.0 | 0.00 | 0.00 | 0.00 | 54 | 1008.0 |
| 20260504214007 | 84 | 182 | 10.0 | 18.0 | 0.00 | 0.00 | 0.00 | 54 | 1007.9 |
| 20260504213905 | 83 | 181 | 10.0 | 18.0 | 0.00 | 0.00 | 0.00 | 53 | 1007.9 |
| 20260504213805 | 84 | 182 | 9.0 | 18.0 | 0.00 | 0.00 | 0.00 | 55 | 1008.0 |
| 20260504213705 | 83 | 183 | 10.0 | 17.0 | 0.00 | 0.00 | 0.00 | 54 | 1007.9 |
| 20260504213405 | 83 | 186 | 10.0 | 15.0 | 0.00 | 0.00 | 0.00 | 54 | 1008.1 |
| 20260504213305 | 83 | 191 | 10.0 | 22.0 | 0.00 | 0.00 | 0.00 | 53 | 1008.0 |
| 20260504213206 | 84 | 192 | 10.0 | 22.0 | 0.00 | 0.00 | 0.00 | 53 | 1008.1 |
| 20260504213105 | 84 | 192 | 10.0 | 22.0 | 0.00 | 0.00 | 0.00 | 53 | 1008.2 |
| 20260504213005 | 84 | 193 | 11.0 | 22.0 | 0.00 | 0.00 | 0.00 | 53 | 1008.1 |
| 20260504212905 | 84 | 191 | 11.0 | 22.0 | 0.00 | 0.00 | 0.00 | 53 | 1008.2 |
| 20260504212805 | 84 | 187 | 11.0 | 25.0 | 0.00 | 0.00 | 0.00 | 53 | 1008.2 |
| 20260504212707 | 84 | 184 | 11.0 | 25.0 | 0.00 | 0.00 | 0.00 | 53 | 1008.3 |
| 20260504212605 | 84 | 181 | 12.0 | 25.0 | 0.00 | 0.00 | 0.00 | 54 | 1008.2 |
| 20260504212505 | 84 | 177 | 12.0 | 25.0 | 0.00 | 0.00 | 0.00 | 54 | 1008.2 |
| 20260504212405 | 84 | 174 | 12.0 | 25.0 | 0.00 | 0.00 | 0.00 | 53 | 1008.3 |
| 20260504212306 | 84 | 174 | 12.0 | 25.0 | 0.00 | 0.00 | 0.00 | 54 | 1008.3 |
| 20260504212205 | 84 | 173 | 13.0 | 25.0 | 0.00 | 0.00 | 0.00 | 54 | 1008.4 |
| 20260504212105 | 83 | 173 | 13.0 | 25.0 | 0.00 | 0.00 | 0.00 | 54 | 1008.3 |
| 20260504212005 | 84 | 172 | 12.0 | 25.0 | 0.00 | 0.00 | 0.00 | 54 | 1008.3 |
| 20260504211904 | 83 | 172 | 12.0 | 25.0 | 0.00 | 0.00 | 0.00 | 53 | 1008.2 |
| 20260504211805 | 83 | 175 | 11.0 | 20.0 | 0.00 | 0.00 | 0.00 | 53 | 1008.2 |
| 20260504211505 | 84 | 186 | 10.0 | 18.0 | 0.00 | 0.00 | 0.00 | 53 | 1008.5 |
| 20260504211405 | 84 | 189 | 10.0 | 20.0 | 0.00 | 0.00 | 0.00 | 53 | 1008.5 |
| 20260504211305 | 84 | 189 | 10.0 | 20.0 | 0.00 | 0.00 | 0.00 | 53 | 1008.5 |
| 20260504211205 | 84 | 188 | 9.0 | 20.0 | 0.00 | 0.00 | 0.00 | 52 | 1008.5 |
| 20260504211105 | 85 | 191 | 9.0 | 20.0 | 0.00 | 0.00 | 0.00 | 53 | 1008.5 |
| 20260504210905 | 84 | 192 | 9.0 | 20.0 | 0.00 | 0.00 | 0.00 | 53 | 1008.5 |
| 20260504210806 | 84 | 191 | 9.0 | 20.0 | 0.00 | 0.00 | 0.00 | 55 | 1008.6 |
| 20260504210705 | 84 | 188 | 10.0 | 20.0 | 0.00 | 0.00 | 0.00 | 55 | 1008.6 |
| 20260504210606 | 84 | 186 | 10.0 | 20.0 | 0.00 | 0.00 | 0.00 | 55 | 1008.6 |
| 20260504210505 | 84 | 184 | 11.0 | 20.0 | 0.00 | 0.00 | 0.00 | 55 | 1008.7 |
| 20260504210105 | 82 | 175 | 11.0 | 20.0 | 0.00 | 0.00 | 0.00 | 55 | 1008.7 |
| 20260504210005 | 82 | 174 | 11.0 | 20.0 | 0.00 | 0.00 | 0.00 | 55 | 1008.8 |
| 20260504205905 | 82 | 174 | 11.0 | 20.0 | 0.00 | 0.00 | 0.00 | 55 | 1008.9 |
| 20260504205705 | 82 | 175 | 12.0 | 20.0 | 0.00 | 0.00 | 0.00 | 54 | 1008.7 |
| 20260504205606 | 82 | 178 | 12.0 | 20.0 | 0.00 | 0.00 | 0.00 | 55 | 1008.8 |
| 20260504205505 | 82 | 181 | 11.0 | 20.0 | 0.00 | 0.00 | 0.00 | 55 | 1008.8 |
| 20260504205406 | 82 | 184 | 11.0 | 18.0 | 0.00 | 0.00 | 0.00 | 55 | 1008.8 |
| 20260504205305 | 82 | 186 | 11.0 | 18.0 | 0.00 | 0.00 | 0.00 | 55 | 1008.8 |
| 20260504205206 | 82 | 186 | 11.0 | 20.0 | 0.00 | 0.00 | 0.00 | 55 | 1008.9 |
| 20260504205105 | 82 | 186 | 11.0 | 20.0 | 0.00 | 0.00 | 0.00 | 55 | 1008.9 |
| 20260504204806 | 83 | 195 | 11.0 | 21.0 | 0.00 | 0.00 | 0.00 | 54 | 1009.1 |
| 20260504204705 | 83 | 197 | 11.0 | 21.0 | 0.00 | 0.00 | 0.00 | 55 | 1009.0 |
| 20260504204605 | 83 | 198 | 11.0 | 21.0 | 0.00 | 0.00 | 0.00 | 54 | 1009.1 |
| 20260504204305 | 83 | 196 | 12.0 | 22.0 | 0.00 | 0.00 | 0.00 | 54 | 1009.2 |
| 20260504204205 | 82 | 194 | 12.0 | 22.0 | 0.00 | 0.00 | 0.00 | 55 | 1009.2 |
| 20260504204105 | 82 | 193 | 12.0 | 22.0 | 0.00 | 0.00 | 0.00 | 55 | 1009.1 |
| 20260504203806 | 83 | 189 | 12.0 | 22.0 | 0.00 | 0.00 | 0.00 | 55 | 1009.1 |
| 20260504203705 | 82 | 189 | 12.0 | 22.0 | 0.00 | 0.00 | 0.00 | 54 | 1009.2 |
| 20260504203605 | 82 | 188 | 12.0 | 22.0 | 0.00 | 0.00 | 0.00 | 54 | 1009.3 |
| 20260504203505 | 82 | 187 | 12.0 | 22.0 | 0.00 | 0.00 | 0.00 | 54 | 1009.3 |
| 20260504203405 | 82 | 188 | 12.0 | 20.0 | 0.00 | 0.00 | 0.00 | 54 | 1009.3 |
| 20260504203306 | 82 | 190 | 11.0 | 20.0 | 0.00 | 0.00 | 0.00 | 54 | 1009.2 |
| 20260504203105 | 82 | 193 | 11.0 | 20.0 | 0.00 | 0.00 | 0.00 | 54 | 1009.3 |
| 20260504203005 | 82 | 192 | 11.0 | 20.0 | 0.00 | 0.00 | 0.00 | 54 | 1009.3 |
| 20260504202905 | 82 | 191 | 11.0 | 20.0 | 0.00 | 0.00 | 0.00 | 54 | 1009.3 |
| 20260504202805 | 82 | 189 | 11.0 | 20.0 | 0.00 | 0.00 | 0.00 | 55 | 1009.4 |
| 20260504202705 | 82 | 188 | 11.0 | 20.0 | 0.00 | 0.00 | 0.00 | 54 | 1009.4 |
| 20260504202605 | 82 | 188 | 11.0 | 20.0 | 0.00 | 0.00 | 0.00 | 55 | 1009.5 |
| 20260504202405 | 82 | 189 | 10.0 | 19.0 | 0.00 | 0.00 | 0.00 | 55 | 1009.6 |
| 20260504202305 | 82 | 189 | 11.0 | 19.0 | 0.00 | 0.00 | 0.00 | 55 | 1009.6 |
| 20260504202205 | 82 | 192 | 11.0 | 20.0 | 0.00 | 0.00 | 0.00 | 54 | 1009.6 |
| 20260504202105 | 82 | 192 | 11.0 | 20.0 | 0.00 | 0.00 | 0.00 | 55 | 1009.6 |
| 20260504202005 | 82 | 193 | 12.0 | 20.0 | 0.00 | 0.00 | 0.00 | 56 | 1009.6 |
| 20260504201904 | 82 | 192 | 12.0 | 20.0 | 0.00 | 0.00 | 0.00 | 55 | 1009.6 |
| 20260504201805 | 82 | 192 | 12.0 | 20.0 | 0.00 | 0.00 | 0.00 | 55 | 1009.6 |
| 20260504201705 | 82 | 194 | 12.0 | 20.0 | 0.00 | 0.00 | 0.00 | 55 | 1009.6 |
| 20260504201605 | 82 | 195 | 12.0 | 20.0 | 0.00 | 0.00 | 0.00 | 56 | 1009.6 |
| 20260504201506 | 82 | 194 | 11.0 | 20.0 | 0.00 | 0.00 | 0.00 | 56 | 1009.6 |
| 20260504201406 | 82 | 193 | 12.0 | 20.0 | 0.00 | 0.00 | 0.00 | 55 | 1009.6 |
| 20260504201305 | 82 | 192 | 11.0 | 20.0 | 0.00 | 0.00 | 0.00 | 54 | 1009.6 |
| 20260504201204 | 82 | 189 | 11.0 | 20.0 | 0.00 | 0.00 | 0.00 | 56 | 1009.7 |
| 20260504201105 | 82 | 187 | 11.0 | 19.0 | 0.00 | 0.00 | 0.00 | 56 | 1009.7 |
| 20260504201006 | 82 | 188 | 11.0 | 18.0 | 0.00 | 0.00 | 0.00 | 56 | 1009.7 |
| 20260504200905 | 82 | 189 | 10.0 | 18.0 | 0.00 | 0.00 | 0.00 | 56 | 1009.8 |
| 20260504200806 | 82 | 187 | 10.0 | 18.0 | 0.00 | 0.00 | 0.00 | 56 | 1009.8 |
| 20260504200705 | 82 | 186 | 10.0 | 18.0 | 0.00 | 0.00 | 0.00 | 56 | 1009.8 |
| 20260504200604 | 82 | 184 | 11.0 | 18.0 | 0.00 | 0.00 | 0.00 | 56 | 1009.8 |
| 20260504200506 | 81 | 183 | 11.0 | 18.0 | 0.00 | 0.00 | 0.00 | 56 | 1009.9 |
| 20260504200305 | 81 | 181 | 11.0 | 18.0 | 0.00 | 0.00 | 0.00 | 56 | 1010.0 |
| 20260504200105 | 81 | 184 | 11.0 | 18.0 | 0.00 | 0.00 | 0.00 | 56 | 1010.0 |
| 20260504200005 | 81 | 184 | 11.0 | 18.0 | 0.00 | 0.00 | 0.00 | 56 | 1010.1 |
| 20260504195806 | 81 | 187 | 11.0 | 20.0 | 0.00 | 0.00 | 0.00 | 57 | 1010.1 |
| 20260504195605 | 81 | 189 | 11.0 | 20.0 | 0.00 | 0.00 | 0.00 | 56 | 1010.1 |
| 20260504195505 | 81 | 192 | 11.0 | 20.0 | 0.00 | 0.00 | 0.00 | 56 | 1010.1 |
| 20260504195405 | 81 | 194 | 11.0 | 20.0 | 0.00 | 0.00 | 0.00 | 55 | 1010.1 |
| 20260504195305 | 81 | 198 | 11.0 | 20.0 | 0.00 | 0.00 | 0.00 | 56 | 1010.1 |
| 20260504195205 | 81 | 200 | 11.0 | 20.0 | 0.00 | 0.00 | 0.00 | 56 | 1010.2 |
| 20260504195104 | 81 | 199 | 11.0 | 20.0 | 0.00 | 0.00 | 0.00 | 56 | 1010.2 |
| 20260504195005 | 81 | 197 | 11.0 | 20.0 | 0.00 | 0.00 | 0.00 | 56 | 1010.2 |
| 20260504194905 | 81 | 194 | 11.0 | 20.0 | 0.00 | 0.00 | 0.00 | 56 | 1010.2 |
| 20260504194805 | 81 | 192 | 11.0 | 19.0 | 0.00 | 0.00 | 0.00 | 56 | 1010.2 |
| 20260504194704 | 81 | 193 | 11.0 | 19.0 | 0.00 | 0.00 | 0.00 | 55 | 1010.2 |
| 20260504194605 | 82 | 189 | 10.0 | 19.0 | 0.00 | 0.00 | 0.00 | 56 | 1010.3 |
| 20260504194505 | 82 | 184 | 10.0 | 19.0 | 0.00 | 0.00 | 0.00 | 55 | 1010.3 |
| 20260504194305 | 82 | 181 | 11.0 | 19.0 | 0.00 | 0.00 | 0.00 | 57 | 1010.5 |
| 20260504194205 | 81 | 178 | 12.0 | 19.0 | 0.00 | 0.00 | 0.00 | 57 | 1010.5 |
| 20260504194105 | 81 | 177 | 12.0 | 23.0 | 0.00 | 0.00 | 0.00 | 56 | 1010.5 |
| 20260504194005 | 80 | 178 | 12.0 | 23.0 | 0.00 | 0.00 | 0.00 | 58 | 1010.5 |
| 20260504193905 | 80 | 177 | 12.0 | 23.0 | 0.00 | 0.00 | 0.00 | 57 | 1010.5 |
| 20260504193804 | 80 | 179 | 12.0 | 23.0 | 0.00 | 0.00 | 0.00 | 57 | 1010.4 |
| 20260504193705 | 80 | 179 | 12.0 | 23.0 | 0.00 | 0.00 | 0.00 | 55 | 1010.4 |
| 20260504193605 | 80 | 184 | 12.0 | 23.0 | 0.00 | 0.00 | 0.00 | 55 | 1010.4 |
| 20260504193505 | 80 | 186 | 12.0 | 23.0 | 0.00 | 0.00 | 0.00 | 55 | 1010.4 |
| 20260504193406 | 80 | 186 | 12.0 | 23.0 | 0.00 | 0.00 | 0.00 | 55 | 1010.5 |
| 20260504193305 | 80 | 186 | 12.0 | 23.0 | 0.00 | 0.00 | 0.00 | 55 | 1010.5 |
| 20260504193206 | 81 | 185 | 12.0 | 23.0 | 0.00 | 0.00 | 0.00 | 55 | 1010.5 |
| 20260504193105 | 81 | 188 | 11.0 | 20.0 | 0.00 | 0.00 | 0.00 | 56 | 1010.5 |
| 20260504193005 | 81 | 191 | 11.0 | 19.0 | 0.00 | 0.00 | 0.00 | 56 | 1010.6 |
| 20260504192905 | 81 | 194 | 12.0 | 19.0 | 0.00 | 0.00 | 0.00 | 57 | 1010.6 |
| 20260504192805 | 81 | 194 | 12.0 | 20.0 | 0.00 | 0.00 | 0.00 | 57 | 1010.6 |
| 20260504192705 | 81 | 195 | 12.0 | 20.0 | 0.00 | 0.00 | 0.00 | 57 | 1010.7 |
| 20260504192605 | 81 | 192 | 12.0 | 20.0 | 0.00 | 0.00 | 0.00 | 57 | 1010.7 |
| 20260504192505 | 80 | 192 | 11.0 | 20.0 | 0.00 | 0.00 | 0.00 | 57 | 1010.6 |
| 20260504192406 | 80 | 193 | 11.0 | 20.0 | 0.00 | 0.00 | 0.00 | 58 | 1010.6 |
| 20260504192305 | 80 | 194 | 11.0 | 20.0 | 0.00 | 0.00 | 0.00 | 56 | 1010.6 |
| 20260504192106 | 81 | 196 | 11.0 | 20.0 | 0.00 | 0.00 | 0.00 | 56 | 1010.6 |
| 20260504192005 | 81 | 198 | 11.0 | 20.0 | 0.00 | 0.00 | 0.00 | 56 | 1010.7 |
| 20260504191904 | 81 | 198 | 11.0 | 20.0 | 0.00 | 0.00 | 0.00 | 56 | 1010.7 |
| 20260504191805 | 81 | 201 | 11.0 | 18.0 | 0.00 | 0.00 | 0.00 | 56 | 1010.8 |
| 20260504191705 | 81 | 200 | 11.0 | 19.0 | 0.00 | 0.00 | 0.00 | 56 | 1010.8 |
| 20260504191605 | 81 | 204 | 11.0 | 19.0 | 0.00 | 0.00 | 0.00 | 57 | 1010.9 |
| 20260504191405 | 81 | 208 | 11.0 | 21.0 | 0.00 | 0.00 | 0.00 | 57 | 1010.8 |
| 20260504191305 | 81 | 209 | 11.0 | 21.0 | 0.00 | 0.00 | 0.00 | 57 | 1010.9 |
| 20260504191206 | 81 | 211 | 12.0 | 21.0 | 0.00 | 0.00 | 0.00 | 57 | 1010.7 |
| 20260504191105 | 81 | 208 | 12.0 | 21.0 | 0.00 | 0.00 | 0.00 | 57 | 1010.8 |
| 20260504191005 | 80 | 207 | 12.0 | 21.0 | 0.00 | 0.00 | 0.00 | 57 | 1010.8 |
| 20260504190705 | 80 | 202 | 11.0 | 21.0 | 0.00 | 0.00 | 0.00 | 57 | 1010.9 |
| 20260504190605 | 80 | 201 | 11.0 | 21.0 | 0.00 | 0.00 | 0.00 | 57 | 1010.8 |
| 20260504190505 | 80 | 199 | 11.0 | 19.0 | 0.00 | 0.00 | 0.00 | 57 | 1010.9 |
| 20260504190405 | 80 | 197 | 11.0 | 19.0 | 0.00 | 0.00 | 0.00 | 58 | 1010.9 |
| 20260504190305 | 80 | 196 | 11.0 | 19.0 | 0.00 | 0.00 | 0.00 | 56 | 1010.8 |
| 20260504190204 | 80 | 198 | 11.0 | 19.0 | 0.00 | 0.00 | 0.00 | 56 | 1010.9 |
| 20260504190105 | 80 | 200 | 11.0 | 21.0 | 0.00 | 0.00 | 0.00 | 56 | 1010.8 |
| 20260504190005 | 81 | 197 | 11.0 | 21.0 | 0.00 | 0.00 | 0.00 | 56 | 1010.9 |
| 20260504185905 | 80 | 194 | 11.0 | 21.0 | 0.00 | 0.00 | 0.00 | 58 | 1010.9 |
| 20260504185806 | 80 | 195 | 11.0 | 21.0 | 0.00 | 0.00 | 0.00 | 58 | 1010.9 |
| 20260504185705 | 80 | 195 | 11.0 | 21.0 | 0.00 | 0.00 | 0.00 | 58 | 1011.0 |
| 20260504185504 | 80 | 193 | 12.0 | 21.0 | 0.00 | 0.00 | 0.00 | 58 | 1011.1 |
| 20260504185405 | 80 | 193 | 13.0 | 21.0 | 0.00 | 0.00 | 0.00 | 58 | 1011.1 |
| 20260504185305 | 80 | 193 | 12.0 | 21.0 | 0.00 | 0.00 | 0.00 | 57 | 1011.0 |
| 20260504185207 | 80 | 190 | 12.0 | 21.0 | 0.00 | 0.00 | 0.00 | 58 | 1011.0 |
| 20260504185104 | 80 | 189 | 13.0 | 21.0 | 0.00 | 0.00 | 0.00 | 58 | 1010.9 |
| 20260504185005 | 79 | 187 | 12.0 | 21.0 | 0.00 | 0.00 | 0.00 | 58 | 1011.0 |
| 20260504184905 | 79 | 186 | 12.0 | 21.0 | 0.00 | 0.00 | 0.00 | 58 | 1011.0 |
| 20260504184705 | 79 | 186 | 12.0 | 21.0 | 0.00 | 0.00 | 0.00 | 58 | 1011.1 |
| 20260504184607 | 79 | 183 | 12.0 | 21.0 | 0.00 | 0.00 | 0.00 | 58 | 1011.1 |
| 20260504184505 | 79 | 181 | 11.0 | 18.0 | 0.00 | 0.00 | 0.00 | 58 | 1011.1 |
| 20260504184405 | 79 | 181 | 10.0 | 18.0 | 0.00 | 0.00 | 0.00 | 58 | 1011.2 |
| 20260504184305 | 79 | 181 | 10.0 | 18.0 | 0.00 | 0.00 | 0.00 | 58 | 1011.2 |
| 20260504184105 | 79 | 181 | 9.0 | 17.0 | 0.00 | 0.00 | 0.00 | 58 | 1011.0 |
| 20260504183905 | 79 | 187 | 10.0 | 18.0 | 0.00 | 0.00 | 0.00 | 57 | 1011.1 |
| 20260504183804 | 80 | 185 | 10.0 | 19.0 | 0.00 | 0.00 | 0.00 | 57 | 1011.2 |
| 20260504183705 | 80 | 187 | 10.0 | 20.0 | 0.00 | 0.00 | 0.00 | 57 | 1011.1 |
| 20260504183605 | 80 | 190 | 10.0 | 20.0 | 0.00 | 0.00 | 0.00 | 61 | 1011.2 |
| 20260504183506 | 80 | 188 | 11.0 | 20.0 | 0.00 | 0.00 | 0.00 | 61 | 1011.2 |
| 20260504183405 | 80 | 187 | 11.0 | 20.0 | 0.00 | 0.00 | 0.00 | 61 | 1011.2 |
| 20260504183305 | 79 | 184 | 11.0 | 20.0 | 0.00 | 0.00 | 0.00 | 61 | 1011.3 |
| 20260504183204 | 79 | 182 | 11.0 | 20.0 | 0.00 | 0.00 | 0.00 | 60 | 1011.2 |
| 20260504183105 | 78 | 183 | 12.0 | 20.0 | 0.00 | 0.00 | 0.00 | 61 | 1011.3 |
| 20260504183005 | 78 | 182 | 11.0 | 20.0 | 0.00 | 0.00 | 0.00 | 59 | 1011.3 |
| 20260504182705 | 78 | 181 | 11.0 | 18.0 | 0.00 | 0.00 | 0.00 | 60 | 1011.4 |
| 20260504182605 | 78 | 182 | 11.0 | 18.0 | 0.00 | 0.00 | 0.00 | 60 | 1011.4 |
| 20260504182405 | 78 | 184 | 12.0 | 19.0 | 0.00 | 0.00 | 0.00 | 61 | 1011.5 |
| 20260504182204 | 77 | 186 | 12.0 | 19.0 | 0.00 | 0.00 | 0.00 | 61 | 1011.5 |
| 20260504182105 | 77 | 185 | 12.0 | 19.0 | 0.00 | 0.00 | 0.00 | 60 | 1011.6 |
| 20260504182004 | 77 | 188 | 12.0 | 19.0 | 0.00 | 0.00 | 0.00 | 61 | 1011.6 |
| 20260504181908 | 77 | 187 | 12.0 | 20.0 | 0.00 | 0.00 | 0.00 | 61 | 1011.6 |
| 20260504181804 | 77 | 187 | 12.0 | 20.0 | 0.00 | 0.00 | 0.00 | 61 | 1011.5 |
| 20260504181705 | 77 | 189 | 12.0 | 20.0 | 0.00 | 0.00 | 0.00 | 61 | 1011.6 |
| 20260504181505 | 77 | 191 | 12.0 | 21.0 | 0.00 | 0.00 | 0.00 | 61 | 1011.6 |
| 20260504181305 | 78 | 196 | 12.0 | 21.0 | 0.00 | 0.00 | 0.00 | 60 | 1011.7 |
| 20260504181204 | 78 | 200 | 12.0 | 21.0 | 0.00 | 0.00 | 0.00 | 61 | 1011.7 |
| 20260504181106 | 78 | 201 | 11.0 | 21.0 | 0.00 | 0.00 | 0.00 | 61 | 1011.7 |
| 20260504180905 | 78 | 199 | 11.0 | 21.0 | 0.00 | 0.00 | 0.00 | 59 | 1011.7 |
| 20260504180805 | 78 | 201 | 11.0 | 21.0 | 0.00 | 0.00 | 0.00 | 60 | 1011.7 |
| 20260504180705 | 78 | 201 | 10.0 | 21.0 | 0.00 | 0.00 | 0.00 | 59 | 1011.8 |
| 20260504180505 | 78 | 200 | 10.0 | 19.0 | 0.00 | 0.00 | 0.00 | 58 | 1011.8 |
| 20260504180404 | 78 | 194 | 10.0 | 17.0 | 0.00 | 0.00 | 0.00 | 61 | 1011.9 |
| 20260504180205 | 77 | 188 | 10.0 | 17.0 | 0.00 | 0.00 | 0.00 | 61 | 1011.8 |
| 20260504180105 | 77 | 190 | 11.0 | 17.0 | 0.00 | 0.00 | 0.00 | 61 | 1011.8 |
| 20260504180005 | 77 | 192 | 11.0 | 18.0 | 0.00 | 0.00 | 0.00 | 63 | 1011.7 |
| 20260504175905 | 76 | 195 | 11.0 | 18.0 | 0.00 | 0.00 | 0.00 | 62 | 1011.8 |
| 20260504175805 | 76 | 196 | 11.0 | 19.0 | 0.00 | 0.00 | 0.00 | 62 | 1011.8 |
| 20260504175705 | 76 | 198 | 12.0 | 19.0 | 0.00 | 0.00 | 0.00 | 62 | 1011.8 |
| 20260504175605 | 76 | 199 | 13.0 | 19.0 | 0.00 | 0.00 | 0.00 | 62 | 1011.8 |
| 20260504175505 | 76 | 199 | 13.0 | 21.0 | 0.00 | 0.00 | 0.00 | 61 | 1011.8 |
| 20260504175405 | 76 | 201 | 12.0 | 21.0 | 0.00 | 0.00 | 0.00 | 61 | 1011.8 |
| 20260504175304 | 76 | 204 | 12.0 | 21.0 | 0.00 | 0.00 | 0.00 | 61 | 1011.9 |
| 20260504175205 | 76 | 205 | 12.0 | 21.0 | 0.00 | 0.00 | 0.00 | 60 | 1011.9 |
| 20260504175105 | 77 | 203 | 12.0 | 21.0 | 0.00 | 0.00 | 0.00 | 60 | 1011.9 |
| 20260504175005 | 77 | 202 | 12.0 | 21.0 | 0.00 | 0.00 | 0.00 | 60 | 1011.9 |
| 20260504174905 | 77 | 201 | 11.0 | 21.0 | 0.00 | 0.00 | 0.00 | 60 | 1012.0 |
| 20260504174805 | 78 | 200 | 11.0 | 21.0 | 0.00 | 0.00 | 0.00 | 60 | 1011.9 |
| 20260504174705 | 78 | 198 | 11.0 | 21.0 | 0.00 | 0.00 | 0.00 | 60 | 1012.0 |
| 20260504174605 | 78 | 196 | 10.0 | 21.0 | 0.00 | 0.00 | 0.00 | 60 | 1012.1 |
| 20260504174505 | 77 | 196 | 10.0 | 21.0 | 0.00 | 0.00 | 0.00 | 62 | 1012.0 |
| 20260504174404 | 77 | 195 | 10.0 | 19.0 | 0.00 | 0.00 | 0.00 | 62 | 1012.0 |
| 20260504174305 | 76 | 195 | 10.0 | 19.0 | 0.00 | 0.00 | 0.00 | 61 | 1012.0 |
| 20260504174204 | 76 | 197 | 10.0 | 19.0 | 0.00 | 0.00 | 0.00 | 61 | 1012.0 |
| 20260504174105 | 76 | 197 | 10.0 | 19.0 | 0.00 | 0.00 | 0.00 | 62 | 1012.0 |
| 20260504174004 | 76 | 197 | 10.0 | 18.0 | 0.00 | 0.00 | 0.00 | 62 | 1012.0 |
| 20260504173905 | 76 | 195 | 10.0 | 18.0 | 0.00 | 0.00 | 0.00 | 62 | 1012.0 |
| 20260504173805 | 76 | 195 | 10.0 | 18.0 | 0.00 | 0.00 | 0.00 | 63 | 1012.1 |
| 20260504173705 | 76 | 196 | 10.0 | 18.0 | 0.00 | 0.00 | 0.00 | 63 | 1012.1 |
| 20260504173604 | 76 | 197 | 11.0 | 20.0 | 0.00 | 0.00 | 0.00 | 63 | 1012.2 |
| 20260504173405 | 76 | 195 | 12.0 | 20.0 | 0.00 | 0.00 | 0.00 | 62 | 1012.2 |
| 20260504173305 | 76 | 194 | 12.0 | 20.0 | 0.00 | 0.00 | 0.00 | 62 | 1012.2 |
| 20260504173205 | 76 | 192 | 13.0 | 20.0 | 0.00 | 0.00 | 0.00 | 61 | 1012.2 |
| 20260504173105 | 76 | 192 | 12.0 | 21.0 | 0.00 | 0.00 | 0.00 | 61 | 1012.1 |
| 20260504173005 | 77 | 192 | 12.0 | 21.0 | 0.00 | 0.00 | 0.00 | 60 | 1012.2 |
| 20260504172905 | 77 | 194 | 12.0 | 21.0 | 0.00 | 0.00 | 0.00 | 60 | 1012.2 |
| 20260504172605 | 78 | 199 | 11.0 | 21.0 | 0.00 | 0.00 | 0.00 | 59 | 1012.2 |
| 20260504172305 | 78 | 204 | 10.0 | 21.0 | 0.00 | 0.00 | 0.00 | 60 | 1012.3 |
| 20260504172105 | 77 | 204 | 10.0 | 17.0 | 0.00 | 0.00 | 0.00 | 62 | 1012.3 |
| 20260504172004 | 76 | 203 | 10.0 | 18.0 | 0.00 | 0.00 | 0.00 | 62 | 1012.2 |
| 20260504171905 | 76 | 204 | 10.0 | 19.0 | 0.00 | 0.00 | 0.00 | 62 | 1012.3 |
| 20260504171706 | 76 | 201 | 10.0 | 19.0 | 0.00 | 0.00 | 0.00 | 61 | 1012.3 |
| 20260504171506 | 76 | 200 | 10.0 | 19.0 | 0.00 | 0.00 | 0.00 | 59 | 1012.3 |
| 20260504171405 | 77 | 200 | 10.0 | 19.0 | 0.00 | 0.00 | 0.00 | 59 | 1012.4 |
| 20260504171305 | 77 | 201 | 10.0 | 19.0 | 0.00 | 0.00 | 0.00 | 59 | 1012.4 |
| 20260504171205 | 78 | 201 | 10.0 | 19.0 | 0.00 | 0.00 | 0.00 | 60 | 1012.5 |
| 20260504171104 | 78 | 204 | 10.0 | 19.0 | 0.00 | 0.00 | 0.00 | 60 | 1012.5 |
| 20260504171005 | 78 | 205 | 10.0 | 19.0 | 0.00 | 0.00 | 0.00 | 59 | 1012.5 |
| 20260504170904 | 78 | 204 | 11.0 | 22.0 | 0.00 | 0.00 | 0.00 | 60 | 1012.4 |
| 20260504170805 | 77 | 203 | 11.0 | 22.0 | 0.00 | 0.00 | 0.00 | 60 | 1012.4 |
| 20260504170705 | 78 | 201 | 11.0 | 22.0 | 0.00 | 0.00 | 0.00 | 60 | 1012.4 |
| 20260504170605 | 77 | 200 | 12.0 | 22.0 | 0.00 | 0.00 | 0.00 | 61 | 1012.4 |
| 20260504170506 | 77 | 200 | 12.0 | 22.0 | 0.00 | 0.00 | 0.00 | 61 | 1012.5 |
| 20260504170405 | 76 | 201 | 12.0 | 22.0 | 0.00 | 0.00 | 0.00 | 62 | 1012.5 |
| 20260504170305 | 76 | 202 | 11.0 | 22.0 | 0.00 | 0.00 | 0.00 | 61 | 1012.6 |
| 20260504170205 | 76 | 203 | 11.0 | 22.0 | 0.00 | 0.00 | 0.00 | 61 | 1012.6 |
| 20260504170106 | 76 | 201 | 11.0 | 22.0 | 0.00 | 0.00 | 0.00 | 61 | 1012.5 |
| 20260504160405 | 74 | 191 | 12.0 | 23.0 | 0.00 | 0.00 | 0.00 | 62 | 1013.0 |
| 20260504160205 | 74 | 187 | 12.0 | 23.0 | 0.00 | 0.00 | 0.00 | 63 | 1013.1 |
| 20260504160104 | 74 | 187 | 11.0 | 23.0 | 0.00 | 0.00 | 0.00 | 62 | 1013.1 |
| 20260504151105 | 72 | 177 | 12.0 | 21.0 | 0.00 | 0.00 | 0.00 | 67 | 1013.5 |
| 20260504151006 | 72 | 176 | 13.0 | 21.0 | 0.00 | 0.00 | 0.00 | 68 | 1013.4 |
| 20260504150805 | 71 | 173 | 14.0 | 22.0 | 0.00 | 0.00 | 0.00 | 68 | 1013.4 |
| 20260504150704 | 71 | 173 | 14.0 | 22.0 | 0.00 | 0.00 | 0.00 | 67 | 1013.3 |
| 20260504150605 | 71 | 173 | 14.0 | 22.0 | 0.00 | 0.00 | 0.00 | 67 | 1013.3 |
| 20260504150504 | 71 | 173 | 14.0 | 22.0 | 0.00 | 0.00 | 0.00 | 67 | 1013.3 |
| 20260504150405 | 71 | 176 | 13.0 | 22.0 | 0.00 | 0.00 | 0.00 | 68 | 1013.3 |
| 20260504150304 | 71 | 177 | 13.0 | 22.0 | 0.00 | 0.00 | 0.00 | 68 | 1013.3 |
| 20260504150205 | 71 | 182 | 13.0 | 22.0 | 0.00 | 0.00 | 0.00 | 68 | 1013.3 |
| 20260504150105 | 70 | 179 | 13.0 | 23.0 | 0.00 | 0.00 | 0.00 | 67 | 1013.3 |
| 20260504141304 | 67 | 187 | 12.0 | 18.0 | 0.00 | 0.00 | 0.00 | 72 | 1013.5 |
| 20260504141204 | 67 | 186 | 12.0 | 18.0 | 0.00 | 0.00 | 0.00 | 72 | 1013.5 |
| 20260504141105 | 67 | 185 | 12.0 | 18.0 | 0.00 | 0.00 | 0.00 | 72 | 1013.5 |
| 20260504141005 | 67 | 185 | 12.0 | 18.0 | 0.00 | 0.00 | 0.00 | 73 | 1013.5 |
| 20260504140904 | 67 | 186 | 12.0 | 18.0 | 0.00 | 0.00 | 0.00 | 73 | 1013.4 |
| 20260504140805 | 67 | 185 | 11.0 | 18.0 | 0.00 | 0.00 | 0.00 | 73 | 1013.5 |
| 20260504140705 | 67 | 184 | 11.0 | 18.0 | 0.00 | 0.00 | 0.00 | 73 | 1013.4 |
| 20260504140505 | 67 | 181 | 11.0 | 18.0 | 0.00 | 0.00 | 0.00 | 73 | 1013.4 |
| 20260504140404 | 67 | 182 | 11.0 | 18.0 | 0.00 | 0.00 | 0.00 | 73 | 1013.4 |
| 20260504140305 | 66 | 183 | 10.0 | 18.0 | 0.00 | 0.00 | 0.00 | 73 | 1013.3 |
| 20260504130804 | 61 | 153 | 4.0 | 9.0 | 0.00 | 0.00 | 0.00 | 82 | 1013.6 |
| 20260504130705 | 61 | 154 | 5.0 | 9.0 | 0.00 | 0.00 | 0.00 | 81 | 1013.6 |
| 20260504130505 | 61 | 153 | 5.0 | 9.0 | 0.00 | 0.00 | 0.00 | 82 | 1013.6 |
| 20260504130404 | 61 | 155 | 5.0 | 9.0 | 0.00 | 0.00 | 0.00 | 82 | 1013.6 |
| 20260504130304 | 61 | 155 | 5.0 | 9.0 | 0.00 | 0.00 | 0.00 | 82 | 1013.6 |
| 20260504130104 | 61 | 156 | 4.0 | 8.0 | 0.00 | 0.00 | 0.00 | 82 | 1013.5 |
| 20260504120304 | 56 | 160 | 3.0 | 6.0 | 0.00 | 0.00 | 0.00 | 87 | 1013.0 |
| 20260504120204 | 56 | 160 | 3.0 | 6.0 | 0.00 | 0.00 | 0.00 | 87 | 1013.1 |
| 20260504120104 | 56 | 160 | 3.0 | 6.0 | 0.00 | 0.00 | 0.00 | 87 | 1013.0 |
| 20260504110704 | 56 | 154 | 0.0 | 2.0 | 0.00 | 0.00 | 0.00 | 85 | 1013.2 |
| 20260504110604 | 56 | 154 | 0.0 | 2.0 | 0.00 | 0.00 | 0.00 | 85 | 1013.2 |
| 20260504110504 | 56 | 154 | 0.0 | 1.0 | 0.00 | 0.00 | 0.00 | 85 | 1013.2 |
| 20260504110404 | 57 | 154 | 0.0 | 1.0 | 0.00 | 0.00 | 0.00 | 85 | 1013.2 |
| 20260504110304 | 57 | 0 | 0.0 | 0.0 | 0.00 | 0.00 | 0.00 | 85 | 1013.2 |
| 20260504110204 | 57 | 154 | 0.0 | 1.0 | 0.00 | 0.00 | 0.00 | 85 | 1013.1 |
| 20260504110104 | 57 | 154 | 0.0 | 3.0 | 0.00 | 0.00 | 0.00 | 85 | 1013.1 |
| 20260504100604 | 58 | 169 | 1.0 | 3.0 | 0.00 | 0.00 | 0.00 | 82 | 1013.6 |
| 20260504100504 | 58 | 166 | 1.0 | 3.0 | 0.00 | 0.00 | 0.00 | 82 | 1013.6 |
| 20260504100405 | 58 | 164 | 1.0 | 3.0 | 0.00 | 0.00 | 0.00 | 82 | 1013.6 |
| 20260504100204 | 58 | 160 | 2.0 | 6.0 | 0.00 | 0.00 | 0.00 | 82 | 1013.6 |
| 20260504100103 | 58 | 158 | 2.0 | 6.0 | 0.00 | 0.00 | 0.00 | 82 | 1013.6 |
| 20260504090104 | 60 | 157 | 2.0 | 4.0 | 0.00 | 0.00 | 0.00 | 79 | 1013.7 |
| 20260504081904 | 60 | 155 | 4.0 | 7.0 | 0.00 | 0.00 | 0.00 | 77 | 1013.7 |
| 20260504081804 | 60 | 154 | 4.0 | 7.0 | 0.00 | 0.00 | 0.00 | 77 | 1013.7 |
| 20260504081704 | 60 | 152 | 3.0 | 7.0 | 0.00 | 0.00 | 0.00 | 77 | 1013.7 |
| 20260504081405 | 60 | 151 | 3.0 | 8.0 | 0.00 | 0.00 | 0.00 | 76 | 1013.6 |
| 20260504081304 | 60 | 150 | 3.0 | 8.0 | 0.00 | 0.00 | 0.00 | 76 | 1013.6 |
| 20260504081204 | 60 | 150 | 3.0 | 8.0 | 0.00 | 0.00 | 0.00 | 76 | 1013.7 |
| 20260504081104 | 60 | 151 | 3.0 | 8.0 | 0.00 | 0.00 | 0.00 | 76 | 1013.7 |
| 20260504081004 | 60 | 151 | 3.0 | 8.0 | 0.00 | 0.00 | 0.00 | 76 | 1013.7 |
| 20260504080704 | 60 | 149 | 3.0 | 8.0 | 0.00 | 0.00 | 0.00 | 76 | 1013.7 |
| 20260504080604 | 60 | 148 | 3.0 | 8.0 | 0.00 | 0.00 | 0.00 | 76 | 1013.6 |
| 20260504080504 | 60 | 148 | 3.0 | 8.0 | 0.00 | 0.00 | 0.00 | 76 | 1013.6 |
| 20260504080405 | 60 | 148 | 3.0 | 7.0 | 0.00 | 0.00 | 0.00 | 76 | 1013.7 |
| 20260504080304 | 60 | 148 | 3.0 | 7.0 | 0.00 | 0.00 | 0.00 | 76 | 1013.7 |
| 20260504080204 | 60 | 148 | 3.0 | 7.0 | 0.00 | 0.00 | 0.00 | 76 | 1013.7 |
| 20260504070405 | 62 | 160 | 3.0 | 7.0 | 0.00 | 0.00 | 0.00 | 72 | 1014.7 |
| 20260504070303 | 62 | 161 | 4.0 | 7.0 | 0.00 | 0.00 | 0.00 | 72 | 1014.7 |
| 20260504070204 | 62 | 163 | 4.0 | 8.0 | 0.00 | 0.00 | 0.00 | 72 | 1014.7 |
| 20260504070105 | 62 | 163 | 4.0 | 8.0 | 0.00 | 0.00 | 0.00 | 72 | 1014.8 |
| 20260504060104 | 63 | 169 | 6.0 | 10.0 | 0.00 | 0.00 | 0.00 | 68 | 1015.6 |